Overview Statistics Trail Chart Weather Telemetry Raw packets
 

This is the latest recevied weather packets stored in our database for station/object N1JOV-7. If no packets are shown the sender has not sent any weather packets the latest 10 day(s).

<< 17 18 19 20 21 22 23 >>
Time Temp. Humidity Pressure Rain* Wind** Luminosity Snow
1788360661 22.22° C 65% 1023.6 hPa 0 mm - - -
1788360061 22.22° C 64% 1023.6 hPa 0 mm - - -
1788359461 22.22° C 65% 1023.5 hPa 0 mm - - -
1788358861 22.22° C 67% 1023.5 hPa 0 mm - - -
1788358261 21.67° C 69% 1023.4 hPa 0 mm - - -
1788357661 21.11° C 71% 1023.4 hPa 0 mm - - -
1788357061 20.56° C 72% 1023.4 hPa 0 mm - - -
1788356462 20.56° C 74% 1023.4 hPa 0 mm - - -
1788355862 20° C 76% 1023.5 hPa 0 mm - - -
1788355262 20° C 75% 1023.7 hPa 0 mm - - -
1788354662 20° C 76% 1023.5 hPa 0 mm - - -
1788354061 19.44° C 77% 1023.5 hPa 0 mm - - -
1788353461 20° C 77% 1023.4 hPa 0 mm - - -
1788352861 18.89° C 81% 1023.3 hPa 0 mm - - -
1788352261 18.33° C 84% 1023.5 hPa 0 mm - - -
1788351661 18.33° C 87% 1023.7 hPa 0 mm - - -
1788351061 16.67° C 90% 1023.6 hPa 0 mm - - -
1788350476 16.67° C 92% 1023.6 hPa 0 mm - - -
1788349862 16.11° C 97% 1023.5 hPa 0 mm - - -
1788349262 16.11° C 98% 1023.4 hPa 0 mm - - -
1788348661 16.67° C 99% 1023.5 hPa 0 mm - - -
1788348061 16.67° C 99% 1023.6 hPa 0 mm - - -
1788347461 16.11° C 99% 1023.2 hPa 0 mm - - -
1788346861 16.11° C 99% 1023.1 hPa 0 mm - - -
1788346261 16.11° C 99% 1023.1 hPa 0 mm - - -

* Rain latest hour (hover to see other rain measurements)
** Current wind speed in m/s (hover to see current wind gust speed)